STARLINK-1210, 45207

Orbit data source: Space-Track

STARLINK-1210, 45207 is a payload satellite owned by SpaceX/Seattle (US) in LEO that was launched on Mon, 17 Feb 2020 UTC via an FALCON 9 launch vehicle from the Air Force Eastern Test Range (AFETR). Payload-class satellites include a variety of spacecraft equipped with specific instruments for various scientific and technological missions. These include communications satellites like Starlink; space stations such as the ISS; scientific satellites like the Hubble; Earth observation satellites from companies like Planet Labs, Umbra, and HawkEye 360; GPS; miniature CubeSats for education and research; and military/defense satellites.

Loading next visibility...
Identifier
45207, 2020-012AF
Orbit
LEO
Country
Flag of USUS
Related business
Manufacturer
SpaceX/Seattle
Mission
Partially operational Commercial Communications
Bus & Motor
STARLINK, Unknown motor
Mass
260 kg wet, ~248 kg dry
Launch date (UTC)
2020-02-17 (6 years ago)
Launch vehicle
FALCON 9
Launch site
Air Force Eastern Test Range (AFETR)
Object type
Payload
Rocket body
Debris
Shape & HBR
Box + 1 Pan, 4.4 m
Radar Cross Section
13.562 m², Large (>1 m²)

Expand to show TLE details & history
Last TLE update: 17 hours ago

TLE from 17 hours ago
0 STARLINK-1210
1 45207U 20012AF  25259.13759145  .00157952  00000-0  31414-2 0  9995
2 45207  53.0308  44.5008 0010003 231.8116 128.1990 15.45852711309456
Epoch: 2025-09-16T03:18Z
TLE epoch observation values (Epoch: 2025-09-16T03:18:07.901Z)
Latitude
0.00002°
Longitude
-0.36431°
Altitude
433.98 km
Speed
7.65 km/s
True Right ascension
02h 58m 00s
True Declination
0° 00' 00"
Sunlit
Object was in full shadow at epoch
Visualization orbit readout
Latitude
Unknown
Longitude
Unknown
Altitude
Unknown
Speed
Unknown
Apparent Right ascension
Unknown
Apparent Declination
Unknown
Sunlit
N/A
Visualization observer readout
Local Sidereal Time
12:51:10
Azimuth
Unknown
Elevation
Unknown
Doppler factor
Unknown
Orbital elements
Apogee altitude
435.962 km
Perigee altitude
422.344 km
Semi-major axis
6,807.29 km
Eccentricity
0.001
Inclination
53.0308°
RAAN
44.5008°
Arg. of periapsis
231.8116°
True anomaly
128.28901°
Mean anomaly
128.199°
Eccentric anomaly
128.24401°
Mean motion
3.8644 °/min
Orbital period
93.16 mins
BSTAR
0.0031414
Loading maneuver chart data...
Computing Atmospheric mass density...

Documentation

Showing up to 5 results
|